Terminal Aerodrome Forecast
Issued by NWS Louisville, KY

Home | Current Version | Previous Version | Text Only | Print | Product List | Glossary On
Versions: 1 2 3 4 5 6 7 8 9 10 11 12 13 14 15 16 17 18 19 20 21 22
000
FTUS43 KLMK 300156 AAA
TAFBWG
TAF AMD
KBWG 300156Z 3002/3024 24003KT P6SM FEW040 BKN100
     FM300800 VRB03KT 5SM BR BKN100
     FM301300 24005KT P6SM BKN035=

USA.gov is the U.S. government's official web portal to all federal, state and local government web resources and services.